Date String (YYYY-MM-DD hh:mm:ss) UTC,Instrument flags,absolute air pressure of the measurement (hPa),sample flow rate (lpm),inlet stack bypass flow (lpm),air temperature of the measurement (°C),ambient temperature measured by the external sensor (°C),aerosol sample conditioner tube jacket temperature (°C),OPC LED temperature (°C),internal box temperature (°C),relative humidity of the measurement (%),span deviation,mass concentration of particles derived from Lorenz-Mie calculation of OPC scattering (μg/m³),mass concentration of particles derived from Lorenz-Mie calculation of OPC scattering (μg/m³),mass concentration of particles derived from Lorenz-Mie calculation of OPC scattering (μg/m³)
DateTimeUTC,F1_M11,P_M11,Q1_M11,Q2_M11,T1_M11,T2_M11,T3_M11,T4_M11,T5_M11,U1_M11,ZSPAN_M11,X0_M11,X2_M11,X1_M11
2024-01-09 04:00:00,SystemResetWarning,0824.6,5.00,000.00,018.7,017.9,000.0,027.1,020.0,5.7,0000.0,0001.06,0000.70,0000.57
2024-01-09 04:01:00,SystemResetWarning,0824.6,5.01,000.00,018.7,017.9,000.0,027.1,020.0,5.7,0000.0,0001.09,0000.71,0000.57
2024-01-09 04:02:00,SystemResetWarning,0824.7,5.00,000.00,018.7,017.9,000.0,027.1,020.0,5.7,0000.0,0001.15,0000.73,0000.58
2024-01-09 04:03:00,SystemResetWarning,0824.7,5.00,000.00,018.7,017.9,000.0,027.1,020.0,5.7,0000.0,0001.17,0000.74,0000.59
2024-01-09 04:04:00,SystemResetWarning,0824.7,5.00,000.00,018.7,017.9,000.0,027.1,020.0,5.7,0000.0,0001.16,0000.76,0000.60
2024-01-09 04:05:00,SystemResetWarning,0824.7,5.00,000.00,018.7,017.8,000.0,027.1,020.0,5.7,0000.0,0001.17,0000.76,0000.60
2024-01-09 04:06:00,SystemResetWarning,0824.7,5.00,000.00,018.7,017.8,000.0,027.1,020.0,5.6,0000.0,0001.14,0000.75,0000.60
2024-01-09 04:07:00,SystemResetWarning,0824.7,5.00,000.00,018.7,017.8,000.0,027.1,020.0,5.6,0000.0,0001.08,0000.74,0000.61
2024-01-09 04:08:00,SystemResetWarning,0824.7,5.00,000.00,018.7,017.8,000.0,027.1,020.0,5.6,0000.0,0001.11,0000.77,0000.61
2024-01-09 04:09:00,SystemResetWarning,0824.7,5.00,000.00,018.7,017.7,000.0,027.1,020.0,5.8,0000.0,0001.26,0000.82,0000.62
2024-01-09 04:10:00,SystemResetWarning,0824.7,5.00,000.00,018.7,017.7,000.0,027.1,020.0,5.7,0000.0,0001.35,0000.86,0000.62
2024-01-09 04:11:00,SystemResetWarning,0824.7,4.99,000.00,018.7,017.7,000.0,027.1,020.0,5.7,0000.0,0001.40,0000.88,0000.62
2024-01-09 04:12:00,SystemResetWarning,0824.7,5.00,000.00,018.7,017.7,000.0,027.1,020.0,5.7,0000.0,0001.55,0000.92,0000.62
2024-01-09 04:13:00,SystemResetWarning,0824.7,5.00,000.00,018.7,017.7,000.0,027.1,020.0,5.7,0000.0,0001.71,0000.93,0000.62
2024-01-09 04:14:00,SystemResetWarning,0824.7,5.00,000.00,018.7,017.7,000.0,027.1,020.0,5.7,0000.0,0001.73,0000.94,0000.62
2024-01-09 04:15:00,SystemResetWarning,0824.7,5.00,000.00,018.7,017.7,000.0,027.1,020.0,5.7,0000.0,0001.72,0000.93,0000.63
2024-01-09 04:16:00,SystemResetWarning,0824.7,5.00,000.00,018.7,017.7,000.0,027.1,020.0,5.7,0000.0,0001.76,0000.95,0000.63
2024-01-09 04:17:00,SystemResetWarning,0824.7,5.00,000.00,018.7,017.7,000.0,027.1,020.0,5.7,0000.0,0001.79,0000.96,0000.63
2024-01-09 04:18:00,SystemResetWarning,0824.7,5.00,000.00,018.7,017.6,000.0,027.1,020.0,5.7,0000.0,0001.81,0000.96,0000.64
2024-01-09 04:19:00,SystemResetWarning,0824.7,5.00,000.00,018.7,017.6,000.0,027.1,020.0,5.7,0000.0,0001.83,0000.97,0000.64
2024-01-09 04:20:00,SystemResetWarning,0824.6,5.00,000.00,018.7,017.6,000.0,027.1,020.0,5.7,0000.0,0001.72,0000.93,0000.64
2024-01-09 04:21:00,SystemResetWarning,0824.6,5.00,000.00,018.7,017.6,000.0,027.1,020.0,5.7,0000.0,0002.22,0000.91,0000.65
2024-01-09 04:22:00,SystemResetWarning,0824.5,5.01,000.00,018.7,017.6,000.0,027.1,020.0,5.7,0000.0,0002.64,0000.89,0000.66
2024-01-09 04:23:00,SystemResetWarning,0824.6,5.00,000.00,018.7,017.6,000.0,027.1,020.0,5.7,0000.0,0002.68,0000.91,0000.66
2024-01-09 04:24:00,SystemResetWarning,0824.6,5.00,000.00,018.7,017.6,000.0,027.1,020.0,5.7,0000.0,0002.45,0000.91,0000.67
2024-01-09 04:25:00,SystemResetWarning,0824.6,5.00,000.00,018.7,017.6,000.0,027.1,020.0,5.7,0000.0,0002.46,0000.93,0000.68
2024-01-09 04:26:00,SystemResetWarning,0824.6,5.00,000.00,018.7,017.5,000.0,027.1,020.0,5.7,0000.0,0002.58,0000.99,0000.68
2024-01-09 04:27:00,SystemResetWarning,0824.6,5.00,000.00,018.7,017.5,000.0,027.1,020.0,5.7,0000.0,0002.64,0001.01,0000.68
2024-01-09 04:28:00,SystemResetWarning,0824.6,5.00,000.00,018.7,017.5,000.0,027.1,020.2,5.7,0000.0,0002.66,0001.02,0000.69
2024-01-09 04:29:00,SystemResetWarning,0824.7,5.00,000.00,018.8,018.0,000.0,027.1,020.5,5.7,0000.0,0002.65,0001.02,0000.69
2024-01-09 04:30:00,SystemResetWarning,0824.8,5.00,000.00,018.9,018.5,000.0,027.1,020.6,5.7,0000.0,0002.67,0001.03,0000.70
2024-01-09 04:31:00,SystemResetWarning,0824.7,5.00,000.00,018.9,018.5,000.0,027.1,020.4,5.7,0000.0,0002.74,0001.07,0000.72
2024-01-09 04:32:00,SystemResetWarning,0824.6,4.99,000.00,018.9,018.5,000.0,027.1,020.2,5.7,0000.0,0002.42,0001.09,0000.73
2024-01-09 04:33:00,SystemResetWarning,0824.6,4.99,000.00,018.9,018.4,000.0,027.1,020.2,5.6,0000.0,0001.88,0001.13,0000.74
2024-01-09 04:34:00,SystemResetWarning,0824.7,5.01,000.00,018.9,018.3,000.0,027.1,020.1,5.6,0000.0,0001.92,0001.15,0000.76
2024-01-09 04:35:00,SystemResetWarning,0824.6,5.01,000.00,018.8,018.3,000.0,027.1,020.0,5.6,0000.0,0001.97,0001.14,0000.77
2024-01-09 04:36:00,SystemResetWarning,0824.5,4.98,000.00,018.8,018.2,000.0,027.1,020.0,5.6,0000.0,0001.98,0001.14,0000.78
2024-01-09 04:37:00,SystemResetWarning,0824.5,5.00,000.00,018.8,018.1,000.0,027.1,020.0,5.5,0000.0,0001.92,0001.11,0000.80
2024-01-09 04:38:00,SystemResetWarning,0824.4,5.00,000.00,018.8,018.1,000.0,027.1,020.0,5.5,0000.0,0001.79,0001.07,0000.81
2024-01-09 04:39:00,SystemResetWarning,0824.5,5.00,000.00,018.8,018.0,000.0,027.1,020.0,5.6,0000.0,0001.81,0001.07,0000.81
2024-01-09 04:40:00,SystemResetWarning,0824.4,5.00,000.00,018.7,018.0,000.0,027.1,020.0,5.6,0000.0,0001.82,0001.08,0000.82
2024-01-09 04:41:00,SystemResetWarning,0824.4,5.00,000.00,018.7,017.9,000.0,027.1,020.0,5.7,0000.0,0001.82,0001.07,0000.82
2024-01-09 04:42:00,SystemResetWarning,0824.5,5.00,000.00,018.7,017.9,000.0,027.1,020.0,5.8,0000.0,0001.74,0001.04,0000.81
2024-01-09 04:43:00,SystemResetWarning,0824.5,5.00,000.00,018.7,017.8,000.0,027.1,020.0,5.8,0000.0,0001.68,0001.02,0000.81
2024-01-09 04:44:00,SystemResetWarning,0824.5,5.00,000.00,018.7,017.8,000.0,027.1,020.0,5.7,0000.0,0002.42,0001.00,0000.82
2024-01-09 04:45:00,SystemResetWarning,0824.5,5.00,000.00,018.7,017.8,000.0,027.2,020.0,5.7,0000.0,0002.99,0000.99,0000.82
2024-01-09 04:46:00,SystemResetWarning,0824.5,5.00,000.00,018.7,017.8,000.0,027.2,020.0,5.6,0000.0,0002.95,0001.01,0000.83
2024-01-09 04:47:00,SystemResetWarning,0824.5,5.00,000.00,018.7,017.7,000.0,027.2,020.0,5.6,0000.0,0002.89,0001.00,0000.82
2024-01-09 04:48:00,SystemResetWarning,0824.5,5.00,000.00,018.7,017.7,000.0,027.2,020.0,5.6,0000.0,0002.97,0001.02,0000.82
2024-01-09 04:49:00,SystemResetWarning,0824.5,5.00,000.00,018.7,017.7,000.0,027.2,020.0,5.6,0000.0,0003.11,0001.06,0000.82
2024-01-09 04:50:00,SystemResetWarning,0824.5,5.00,000.00,018.7,017.7,000.0,027.2,020.0,5.7,0000.0,0003.15,0001.08,0000.82
2024-01-09 04:51:00,SystemResetWarning,0824.5,5.00,000.00,018.7,017.7,000.0,027.2,020.0,5.7,0000.0,0003.14,0001.07,0000.81
2024-01-09 04:52:00,SystemResetWarning,0824.5,5.00,000.00,018.7,017.7,000.0,027.1,020.0,5.7,0000.0,0003.12,0001.06,0000.81
2024-01-09 04:53:00,SystemResetWarning,0824.5,5.00,000.00,018.7,017.7,000.0,027.1,020.0,5.8,0000.0,0003.16,0001.08,0000.82
2024-01-09 04:54:00,SystemResetWarning,0824.5,5.00,000.00,018.7,017.7,000.0,027.1,020.0,5.8,0000.0,0003.15,0001.08,0000.82
2024-01-09 04:55:00,SystemResetWarning,0824.5,5.00,000.00,018.7,017.6,000.0,027.1,020.0,5.9,0000.0,0002.62,0001.07,0000.81
2024-01-09 04:56:00,SystemResetWarning,0824.4,5.00,000.00,018.7,017.6,000.0,027.2,020.0,5.9,0000.0,0001.72,0001.07,0000.82
2024-01-09 04:57:00,SystemResetWarning,0824.4,5.00,000.00,018.7,017.6,000.0,027.2,020.0,5.9,0000.0,0001.69,0001.05,0000.81
2024-01-09 04:58:00,SystemResetWarning,0824.4,5.00,000.00,018.7,017.7,000.0,027.1,020.2,6.0,0000.0,0001.78,0001.09,0000.81
2024-01-09 04:59:00,SystemResetWarning,0824.5,5.01,000.00,018.8,018.3,000.0,027.1,020.6,6.0,0000.0,0001.89,0001.14,0000.81
